Year,Month,Day,Hour,Minute,Value (Times are PST for windgust in km/hr)
2007,01,07,00,00,3.20
2007,01,07,00,01,1.60
2007,01,07,00,02,0.00
2007,01,07,00,03,0.00
2007,01,07,00,04,0.00
2007,01,07,00,05,1.60
2007,01,07,00,06,1.60
2007,01,07,00,07,1.60
2007,01,07,00,08,0.00
2007,01,07,00,09,0.00
2007,01,07,00,10,0.00
2007,01,07,00,11,0.00
2007,01,07,00,12,1.60
2007,01,07,00,13,1.60
2007,01,07,00,14,1.60
2007,01,07,00,15,1.60
2007,01,07,00,16,1.60
2007,01,07,00,17,1.60
2007,01,07,00,18,0.00
2007,01,07,00,19,0.00
2007,01,07,00,20,0.00
2007,01,07,00,21,0.00
2007,01,07,00,22,0.00
2007,01,07,00,23,0.00
2007,01,07,00,24,0.00
2007,01,07,00,25,3.20
2007,01,07,00,26,3.20
2007,01,07,00,27,4.80
2007,01,07,00,28,4.80
2007,01,07,00,29,4.80
2007,01,07,00,30,4.80
2007,01,07,00,31,3.20
2007,01,07,00,32,1.60
2007,01,07,00,33,1.60
2007,01,07,00,34,1.60
2007,01,07,00,35,3.20
2007,01,07,00,36,3.20
2007,01,07,00,37,4.80
2007,01,07,00,38,4.80
2007,01,07,00,39,3.20
2007,01,07,00,40,3.20
2007,01,07,00,41,3.20
2007,01,07,00,42,3.20
2007,01,07,00,43,4.80
2007,01,07,00,44,1.60
2007,01,07,00,45,3.20
2007,01,07,00,46,3.20
2007,01,07,00,47,3.20
2007,01,07,00,48,3.20
2007,01,07,00,49,3.20
2007,01,07,00,50,3.20
2007,01,07,00,51,3.20
2007,01,07,00,52,3.20
2007,01,07,00,53,3.20
2007,01,07,00,54,0.00
2007,01,07,00,55,0.00
2007,01,07,00,56,0.00
2007,01,07,00,57,3.20
2007,01,07,00,58,1.60
2007,01,07,00,59,3.20
2007,01,07,01,00,1.60
2007,01,07,01,01,1.60
2007,01,07,01,02,3.20
2007,01,07,01,03,3.20
2007,01,07,01,04,4.80
2007,01,07,01,05,4.80
2007,01,07,01,06,4.80
2007,01,07,01,07,4.80
2007,01,07,01,08,6.40
2007,01,07,01,09,6.40
2007,01,07,01,10,6.40
2007,01,07,01,11,6.40
2007,01,07,01,12,4.80
2007,01,07,01,13,4.80
2007,01,07,01,14,3.20
2007,01,07,01,15,4.80
2007,01,07,01,16,6.40
2007,01,07,01,17,4.80
2007,01,07,01,18,6.40
2007,01,07,01,19,4.80
2007,01,07,01,20,4.80
2007,01,07,01,21,8.10
2007,01,07,01,22,6.40
2007,01,07,01,23,4.80
2007,01,07,01,24,3.20
2007,01,07,01,25,4.80
2007,01,07,01,26,6.40
2007,01,07,01,27,8.10
2007,01,07,01,28,9.60
2007,01,07,01,29,6.40
2007,01,07,01,30,4.80
2007,01,07,01,31,1.60
2007,01,07,01,32,1.60
2007,01,07,01,33,4.80
2007,01,07,01,34,4.80
2007,01,07,01,35,4.80
2007,01,07,01,36,9.60
2007,01,07,01,37,4.80
2007,01,07,01,38,12.90
2007,01,07,01,39,9.60
2007,01,07,01,40,4.80
2007,01,07,01,41,12.90
2007,01,07,01,42,6.40
2007,01,07,01,43,9.60
2007,01,07,01,44,8.10
2007,01,07,01,45,9.60
2007,01,07,01,46,16.10
2007,01,07,01,47,9.60
2007,01,07,01,48,6.40
2007,01,07,01,49,6.40
2007,01,07,01,50,6.40
2007,01,07,01,51,16.10
2007,01,07,01,52,17.70
2007,01,07,01,53,16.10
2007,01,07,01,54,11.30
2007,01,07,01,55,9.60
2007,01,07,01,56,6.40
2007,01,07,01,57,8.10
2007,01,07,01,58,9.60
2007,01,07,01,59,11.30
2007,01,07,02,00,8.10
2007,01,07,02,01,6.40
2007,01,07,02,02,8.10
2007,01,07,02,03,4.80
2007,01,07,02,04,4.80
2007,01,07,02,05,8.10
2007,01,07,02,06,6.40
2007,01,07,02,07,3.20
2007,01,07,02,08,8.10
2007,01,07,02,09,16.10
2007,01,07,02,10,6.40
2007,01,07,02,11,8.10
2007,01,07,02,12,6.40
2007,01,07,02,13,8.10
2007,01,07,02,14,3.20
2007,01,07,02,15,3.20
2007,01,07,02,16,3.20
2007,01,07,02,17,0.00
2007,01,07,02,18,4.80
2007,01,07,02,19,6.40
2007,01,07,02,20,6.40
2007,01,07,02,21,8.10
2007,01,07,02,22,8.10
2007,01,07,02,23,8.10
2007,01,07,02,24,4.80
2007,01,07,02,25,4.80
2007,01,07,02,26,6.40
2007,01,07,02,27,4.80
2007,01,07,02,28,6.40
2007,01,07,02,29,4.80
2007,01,07,02,30,4.80
2007,01,07,02,31,4.80
2007,01,07,02,32,3.20
2007,01,07,02,33,1.60
2007,01,07,02,34,3.20
2007,01,07,02,35,8.10
2007,01,07,02,36,16.10
2007,01,07,02,37,14.50
2007,01,07,02,38,9.60
2007,01,07,02,39,16.10
2007,01,07,02,40,11.30
2007,01,07,02,41,9.60
2007,01,07,02,42,6.40
2007,01,07,02,43,8.10
2007,01,07,02,44,8.10
2007,01,07,02,45,6.40
2007,01,07,02,46,14.50
2007,01,07,02,47,11.30
2007,01,07,02,48,6.40
2007,01,07,02,49,6.40
2007,01,07,02,50,14.50
2007,01,07,02,51,9.60
2007,01,07,02,52,9.60
2007,01,07,02,53,8.10
2007,01,07,02,54,11.30
2007,01,07,02,55,8.10
2007,01,07,02,56,12.90
2007,01,07,02,57,16.10
2007,01,07,02,58,16.10
2007,01,07,02,59,8.10
2007,01,07,03,00,6.40
2007,01,07,03,01,9.60
2007,01,07,03,02,8.10
2007,01,07,03,03,14.50
2007,01,07,03,04,11.30
2007,01,07,03,05,9.60
2007,01,07,03,06,8.10
2007,01,07,03,07,16.10
2007,01,07,03,08,16.10
2007,01,07,03,09,11.30
2007,01,07,03,10,11.30
2007,01,07,03,11,25.70
2007,01,07,03,12,24.20
2007,01,07,03,13,22.50
2007,01,07,03,14,19.30
2007,01,07,03,15,25.70
2007,01,07,03,16,16.10
2007,01,07,03,17,22.50
2007,01,07,03,18,22.50
2007,01,07,03,19,19.30
2007,01,07,03,20,11.30
2007,01,07,03,21,27.40
2007,01,07,03,22,29.00
2007,01,07,03,23,27.40
2007,01,07,03,24,29.00
2007,01,07,03,25,16.10
2007,01,07,03,26,27.40
2007,01,07,03,27,24.20
2007,01,07,03,28,24.20
2007,01,07,03,29,25.70
2007,01,07,03,30,27.40
2007,01,07,03,31,27.40
2007,01,07,03,32,19.30
2007,01,07,03,33,24.20
2007,01,07,03,34,29.00
2007,01,07,03,35,17.70
2007,01,07,03,36,22.50
2007,01,07,03,37,20.90
2007,01,07,03,38,16.10
2007,01,07,03,39,16.10
2007,01,07,03,40,19.30
2007,01,07,03,41,17.70
2007,01,07,03,42,19.30
2007,01,07,03,43,19.30
2007,01,07,03,44,12.90
2007,01,07,03,45,16.10
2007,01,07,03,46,16.10
2007,01,07,03,47,16.10
2007,01,07,03,48,16.10
2007,01,07,03,49,19.30
2007,01,07,03,50,25.70
2007,01,07,03,51,16.10
2007,01,07,03,52,30.60
2007,01,07,03,53,29.00
2007,01,07,03,54,20.90
2007,01,07,03,55,32.20
2007,01,07,03,56,25.70
2007,01,07,03,57,27.40
2007,01,07,03,58,24.20
2007,01,07,03,59,20.90
2007,01,07,04,00,20.90
2007,01,07,04,01,25.70
2007,01,07,04,02,25.70
2007,01,07,04,03,25.70
2007,01,07,04,04,27.40
2007,01,07,04,05,27.40
2007,01,07,04,06,19.30
2007,01,07,04,07,32.20
2007,01,07,04,08,35.40
2007,01,07,04,09,27.40
2007,01,07,04,10,17.70
2007,01,07,04,11,24.20
2007,01,07,04,12,22.50
2007,01,07,04,13,22.50
2007,01,07,04,14,17.70
2007,01,07,04,15,22.50
2007,01,07,04,16,27.40
2007,01,07,04,17,20.90
2007,01,07,04,18,24.20
2007,01,07,04,19,33.80
2007,01,07,04,20,22.50
2007,01,07,04,21,29.00
2007,01,07,04,22,24.20
2007,01,07,04,23,20.90
2007,01,07,04,24,25.70
2007,01,07,04,25,17.70
2007,01,07,04,26,22.50
2007,01,07,04,27,14.50
2007,01,07,04,28,25.70
2007,01,07,04,29,27.40
2007,01,07,04,30,22.50
2007,01,07,04,31,30.60
2007,01,07,04,32,24.20
2007,01,07,04,33,17.70
2007,01,07,04,34,19.30
2007,01,07,04,35,17.70
2007,01,07,04,36,19.30
2007,01,07,04,37,20.90
2007,01,07,04,38,17.70
2007,01,07,04,39,19.30
2007,01,07,04,40,20.90
2007,01,07,04,41,20.90
2007,01,07,04,42,22.50
2007,01,07,04,43,22.50
2007,01,07,04,44,30.60
2007,01,07,04,45,22.50
2007,01,07,04,46,29.00
2007,01,07,04,47,32.20
2007,01,07,04,48,27.40
2007,01,07,04,49,27.40
2007,01,07,04,50,25.70
2007,01,07,04,51,19.30
2007,01,07,04,52,16.10
2007,01,07,04,53,19.30
2007,01,07,04,54,22.50
2007,01,07,04,55,25.70
2007,01,07,04,56,16.10
2007,01,07,04,57,20.90
2007,01,07,04,58,19.30
2007,01,07,04,59,22.50
2007,01,07,05,00,19.30
2007,01,07,05,01,17.70
2007,01,07,05,02,9.60
2007,01,07,05,03,17.70
2007,01,07,05,04,17.70
2007,01,07,05,05,9.60
2007,01,07,05,06,16.10
2007,01,07,05,07,20.90
2007,01,07,05,08,17.70
2007,01,07,05,09,16.10
2007,01,07,05,10,9.60
2007,01,07,05,11,9.60
2007,01,07,05,12,12.90
2007,01,07,05,13,16.10
2007,01,07,05,14,17.70
2007,01,07,05,15,14.50
2007,01,07,05,16,17.70
2007,01,07,05,17,19.30
2007,01,07,05,18,17.70
2007,01,07,05,19,11.30
2007,01,07,05,20,19.30
2007,01,07,05,21,17.70
2007,01,07,05,22,9.60
2007,01,07,05,23,9.60
2007,01,07,05,24,14.50
2007,01,07,05,25,9.60
2007,01,07,05,26,9.60
2007,01,07,05,27,11.30
2007,01,07,05,28,16.10
2007,01,07,05,29,24.20
2007,01,07,05,30,16.10
2007,01,07,05,31,14.50
2007,01,07,05,32,9.60
2007,01,07,05,33,9.60
2007,01,07,05,34,20.90
2007,01,07,05,35,19.30
2007,01,07,05,36,16.10
2007,01,07,05,37,12.90
2007,01,07,05,38,19.30
2007,01,07,05,39,17.70
2007,01,07,05,40,19.30
2007,01,07,05,41,14.50
2007,01,07,05,42,9.60
2007,01,07,05,43,19.30
2007,01,07,05,44,17.70
2007,01,07,05,45,11.30
2007,01,07,05,46,17.70
2007,01,07,05,47,16.10
2007,01,07,05,48,20.90
2007,01,07,05,49,24.20
2007,01,07,05,50,24.20
2007,01,07,05,51,22.50
2007,01,07,05,52,32.20
2007,01,07,05,53,29.00
2007,01,07,05,54,24.20
2007,01,07,05,55,22.50
2007,01,07,05,56,19.30
2007,01,07,05,57,14.50
2007,01,07,05,58,17.70
2007,01,07,05,59,19.30
2007,01,07,06,00,27.40
2007,01,07,06,01,20.90
2007,01,07,06,02,20.90
2007,01,07,06,03,17.70
2007,01,07,06,04,17.70
2007,01,07,06,05,24.20
2007,01,07,06,06,25.70
2007,01,07,06,07,16.10
2007,01,07,06,08,16.10
2007,01,07,06,09,12.90
2007,01,07,06,10,8.10
2007,01,07,06,11,9.60
2007,01,07,06,12,4.80
2007,01,07,06,13,4.80
2007,01,07,06,14,4.80
2007,01,07,06,15,20.90
2007,01,07,06,16,17.70
2007,01,07,06,17,20.90
2007,01,07,06,18,25.70
2007,01,07,06,19,19.30
2007,01,07,06,20,24.20
2007,01,07,06,21,22.50
2007,01,07,06,22,22.50
2007,01,07,06,23,22.50
2007,01,07,06,24,22.50
2007,01,07,06,25,22.50
2007,01,07,06,26,16.10
2007,01,07,06,27,11.30
2007,01,07,06,28,8.10
2007,01,07,06,29,9.60
2007,01,07,06,30,22.50
2007,01,07,06,31,27.40
2007,01,07,06,32,19.30
2007,01,07,06,33,27.40
2007,01,07,06,34,25.70
2007,01,07,06,35,24.20
2007,01,07,06,36,25.70
2007,01,07,06,37,17.70
2007,01,07,06,38,16.10
2007,01,07,06,39,19.30
2007,01,07,06,40,27.40
2007,01,07,06,41,24.20
2007,01,07,06,42,27.40
2007,01,07,06,43,17.70
2007,01,07,06,44,11.30
2007,01,07,06,45,29.00
2007,01,07,06,46,32.20
2007,01,07,06,47,22.50
2007,01,07,06,48,27.40
2007,01,07,06,49,25.70
2007,01,07,06,50,20.90
2007,01,07,06,51,16.10
2007,01,07,06,52,24.20
2007,01,07,06,53,29.00
2007,01,07,06,54,30.60
2007,01,07,06,55,20.90
2007,01,07,06,56,29.00
2007,01,07,06,57,25.70
2007,01,07,06,58,22.50
2007,01,07,06,59,32.20
2007,01,07,07,00,16.10
2007,01,07,07,01,24.20
2007,01,07,07,02,32.20
2007,01,07,07,03,24.20
2007,01,07,07,04,22.50
2007,01,07,07,05,25.70
2007,01,07,07,06,29.00
2007,01,07,07,07,24.20
2007,01,07,07,08,25.70
2007,01,07,07,09,22.50
2007,01,07,07,10,22.50
2007,01,07,07,11,24.20
2007,01,07,07,12,24.20
2007,01,07,07,13,25.70
2007,01,07,07,14,32.20
2007,01,07,07,15,25.70
2007,01,07,07,16,30.60
2007,01,07,07,17,20.90
2007,01,07,07,18,24.20
2007,01,07,07,19,22.50
2007,01,07,07,20,24.20
2007,01,07,07,21,17.70
2007,01,07,07,22,24.20
2007,01,07,07,23,19.30
2007,01,07,07,24,25.70
2007,01,07,07,25,22.50
2007,01,07,07,26,22.50
2007,01,07,07,27,19.30
2007,01,07,07,28,20.90
2007,01,07,07,29,19.30
2007,01,07,07,30,24.20
2007,01,07,07,31,17.70
2007,01,07,07,32,29.00
2007,01,07,07,33,27.40
2007,01,07,07,34,25.70
2007,01,07,07,35,17.70
2007,01,07,07,36,22.50
2007,01,07,07,37,27.40
2007,01,07,07,38,22.50
2007,01,07,07,39,27.40
2007,01,07,07,40,25.70
2007,01,07,07,41,19.30
2007,01,07,07,42,11.30
2007,01,07,07,43,24.20
2007,01,07,07,44,16.10
2007,01,07,07,45,29.00
2007,01,07,07,46,32.20
2007,01,07,07,47,24.20
2007,01,07,07,48,32.20
2007,01,07,07,49,29.00
2007,01,07,07,50,41.80
2007,01,07,07,51,25.70
2007,01,07,07,52,24.20
2007,01,07,07,53,35.40
2007,01,07,07,54,37.00
2007,01,07,07,55,35.40
2007,01,07,07,56,37.00
2007,01,07,07,57,38.60
2007,01,07,07,58,43.50
2007,01,07,07,59,51.50
2007,01,07,08,00,41.80
2007,01,07,08,01,48.30
2007,01,07,08,02,33.80
2007,01,07,08,03,33.80
2007,01,07,08,04,46.70
2007,01,07,08,05,45.10
2007,01,07,08,06,29.00
2007,01,07,08,07,29.00
2007,01,07,08,08,33.80
2007,01,07,08,09,40.20
2007,01,07,08,10,37.00
2007,01,07,08,11,33.80
2007,01,07,08,12,40.20
2007,01,07,08,13,45.10
2007,01,07,08,14,38.60
2007,01,07,08,15,38.60
2007,01,07,08,16,29.00
2007,01,07,08,17,33.80
2007,01,07,08,18,29.00
2007,01,07,08,19,30.60
2007,01,07,08,20,29.00
2007,01,07,08,21,46.70
2007,01,07,08,22,32.20
2007,01,07,08,23,29.00
2007,01,07,08,24,29.00
2007,01,07,08,25,27.40
2007,01,07,08,26,33.80
2007,01,07,08,27,33.80
2007,01,07,08,28,33.80
2007,01,07,08,29,32.20
2007,01,07,08,30,27.40
2007,01,07,08,31,22.50
2007,01,07,08,32,24.20
2007,01,07,08,33,16.10
2007,01,07,08,34,16.10
2007,01,07,08,35,16.10
2007,01,07,08,36,16.10
2007,01,07,08,37,24.20
2007,01,07,08,38,20.90
2007,01,07,08,39,20.90
2007,01,07,08,40,20.90
2007,01,07,08,41,40.20
2007,01,07,08,42,30.60
2007,01,07,08,43,45.10
2007,01,07,08,44,46.70
2007,01,07,08,45,43.50
2007,01,07,08,46,49.90
2007,01,07,08,47,29.00
2007,01,07,08,48,49.90
2007,01,07,08,49,46.70
2007,01,07,08,50,32.20
2007,01,07,08,51,43.50
2007,01,07,08,52,25.70
2007,01,07,08,53,38.60
2007,01,07,08,54,27.40
2007,01,07,08,55,37.00
2007,01,07,08,56,38.60
2007,01,07,08,57,27.40
2007,01,07,08,58,12.90
2007,01,07,08,59,12.90
2007,01,07,09,00,37.00
2007,01,07,09,01,48.30
2007,01,07,09,02,33.80
2007,01,07,09,03,33.80
2007,01,07,09,04,37.00
2007,01,07,09,05,35.40
2007,01,07,09,06,35.40
2007,01,07,09,07,48.30
2007,01,07,09,08,45.10
2007,01,07,09,09,41.80
2007,01,07,09,10,30.60
2007,01,07,09,11,45.10
2007,01,07,09,12,43.50
2007,01,07,09,13,25.70
2007,01,07,09,14,24.20
2007,01,07,09,15,30.60
2007,01,07,09,16,30.60
2007,01,07,09,17,30.60
2007,01,07,09,18,33.80
2007,01,07,09,19,33.80
2007,01,07,09,20,25.70
2007,01,07,09,21,41.80
2007,01,07,09,22,38.60
2007,01,07,09,23,40.20
2007,01,07,09,24,43.50
2007,01,07,09,25,35.40
2007,01,07,09,26,38.60
2007,01,07,09,27,45.10
2007,01,07,09,28,41.80
2007,01,07,09,29,37.00
2007,01,07,09,30,35.40
2007,01,07,09,31,30.60
2007,01,07,09,32,43.50
2007,01,07,09,33,40.20
2007,01,07,09,34,32.20
2007,01,07,09,35,22.50
2007,01,07,09,36,33.80
2007,01,07,09,37,43.50
2007,01,07,09,38,38.60
2007,01,07,09,39,24.20
2007,01,07,09,40,33.80
2007,01,07,09,41,25.70
2007,01,07,09,42,35.40
2007,01,07,09,43,40.20
2007,01,07,09,44,35.40
2007,01,07,09,45,37.00
2007,01,07,09,46,32.20
2007,01,07,09,47,33.80
2007,01,07,09,48,25.70
2007,01,07,09,49,40.20
2007,01,07,09,50,43.50
2007,01,07,09,51,35.40
2007,01,07,09,52,51.50
2007,01,07,09,53,29.00
2007,01,07,09,54,24.20
2007,01,07,09,55,24.20
2007,01,07,09,56,27.40
2007,01,07,09,57,20.90
2007,01,07,09,58,17.70
2007,01,07,09,59,25.70
2007,01,07,10,00,22.50
2007,01,07,10,01,35.40
2007,01,07,10,02,30.60
2007,01,07,10,03,43.50
2007,01,07,10,04,38.60
2007,01,07,10,05,29.00
2007,01,07,10,06,30.60
2007,01,07,10,07,30.60
2007,01,07,10,08,40.20
2007,01,07,10,09,32.20
2007,01,07,10,10,33.80
2007,01,07,10,11,45.10
2007,01,07,10,12,29.00
2007,01,07,10,13,32.20
2007,01,07,10,14,32.20
2007,01,07,10,15,43.50
2007,01,07,10,16,32.20
2007,01,07,10,17,38.60
2007,01,07,10,18,24.20
2007,01,07,10,19,38.60
2007,01,07,10,20,38.60
2007,01,07,10,21,32.20
2007,01,07,10,22,37.00
2007,01,07,10,23,48.30
2007,01,07,10,24,38.60
2007,01,07,10,25,46.70
2007,01,07,10,26,43.50
2007,01,07,10,27,32.20
2007,01,07,10,28,41.80
2007,01,07,10,29,25.70
2007,01,07,10,30,29.00
2007,01,07,10,31,33.80
2007,01,07,10,32,35.40
2007,01,07,10,33,35.40
2007,01,07,10,34,33.80
2007,01,07,10,35,30.60
2007,01,07,10,36,16.10
2007,01,07,10,37,35.40
2007,01,07,10,38,38.60
2007,01,07,10,39,32.20
2007,01,07,10,40,30.60
2007,01,07,10,41,35.40
2007,01,07,10,42,32.20
2007,01,07,10,43,29.00
2007,01,07,10,44,22.50
2007,01,07,10,45,20.90
2007,01,07,10,46,30.60
2007,01,07,10,47,17.70
2007,01,07,10,48,22.50
2007,01,07,10,49,19.30
2007,01,07,10,50,27.40
2007,01,07,10,51,46.70
2007,01,07,10,52,32.20
2007,01,07,10,53,30.60
2007,01,07,10,54,27.40
2007,01,07,10,55,33.80
2007,01,07,10,56,29.00
2007,01,07,10,57,38.60
2007,01,07,10,58,40.20
2007,01,07,10,59,32.20
2007,01,07,11,00,22.50
2007,01,07,11,01,29.00
2007,01,07,11,02,48.30
2007,01,07,11,03,53.10
2007,01,07,11,04,33.80
2007,01,07,11,05,32.20
2007,01,07,11,06,19.30
2007,01,07,11,07,32.20
2007,01,07,11,08,37.00
2007,01,07,11,09,25.70
2007,01,07,11,10,29.00
2007,01,07,11,11,38.60
2007,01,07,11,12,30.60
2007,01,07,11,13,43.50
2007,01,07,11,14,37.00
2007,01,07,11,15,37.00
2007,01,07,11,16,45.10
2007,01,07,11,17,45.10
2007,01,07,11,18,43.50
2007,01,07,11,19,41.80
2007,01,07,11,20,37.00
2007,01,07,11,21,22.50
2007,01,07,11,22,45.10
2007,01,07,11,23,38.60
2007,01,07,11,24,46.70
2007,01,07,11,25,41.80
2007,01,07,11,26,49.90
2007,01,07,11,27,30.60
2007,01,07,11,28,43.50
2007,01,07,11,29,54.70
2007,01,07,11,30,49.90
2007,01,07,11,31,35.40
2007,01,07,11,32,32.20
2007,01,07,11,33,22.50
2007,01,07,11,34,41.80
2007,01,07,11,35,41.80
2007,01,07,11,36,32.20
2007,01,07,11,37,37.00
2007,01,07,11,38,41.80
2007,01,07,11,39,25.70
2007,01,07,11,40,35.40
2007,01,07,11,41,27.40
2007,01,07,11,42,27.40
2007,01,07,11,43,29.00
2007,01,07,11,44,20.90
2007,01,07,11,45,33.80
2007,01,07,11,46,33.80
2007,01,07,11,47,40.20
2007,01,07,11,48,27.40
2007,01,07,11,49,27.40
2007,01,07,11,50,29.00
2007,01,07,11,51,29.00
2007,01,07,11,52,38.60
2007,01,07,11,53,38.60
2007,01,07,11,54,32.20
2007,01,07,11,55,29.00
2007,01,07,11,56,35.40
2007,01,07,11,57,38.60
2007,01,07,11,58,41.80
2007,01,07,11,59,38.60
2007,01,07,12,00,30.60
2007,01,07,12,01,46.70
2007,01,07,12,02,40.20
2007,01,07,12,03,27.40
2007,01,07,12,04,32.20
2007,01,07,12,05,32.20
2007,01,07,12,06,29.00
2007,01,07,12,07,32.20
2007,01,07,12,08,25.70
2007,01,07,12,09,17.70
2007,01,07,12,10,17.70
2007,01,07,12,11,35.40
2007,01,07,12,12,43.50
2007,01,07,12,13,37.00
2007,01,07,12,14,25.70
2007,01,07,12,15,25.70
2007,01,07,12,16,32.20
2007,01,07,12,17,32.20
2007,01,07,12,18,32.20
2007,01,07,12,19,25.70
2007,01,07,12,20,25.70
2007,01,07,12,21,30.60
2007,01,07,12,22,37.00
2007,01,07,12,23,19.30
2007,01,07,12,24,19.30
2007,01,07,12,25,19.30
2007,01,07,12,26,19.30
2007,01,07,12,27,29.00
2007,01,07,12,28,35.40
2007,01,07,12,29,29.00
2007,01,07,12,30,25.70
2007,01,07,12,31,20.90
2007,01,07,12,32,20.90
2007,01,07,12,33,22.50
2007,01,07,12,34,27.40
2007,01,07,12,35,22.50
2007,01,07,12,36,19.30
2007,01,07,12,37,19.30
2007,01,07,12,38,19.30
2007,01,07,12,39,19.30
2007,01,07,12,40,19.30
2007,01,07,12,41,19.30
2007,01,07,12,42,19.30
2007,01,07,12,43,22.50
2007,01,07,12,44,32.20
2007,01,07,12,45,27.40
2007,01,07,12,46,22.50
2007,01,07,12,47,25.70
2007,01,07,12,48,22.50
2007,01,07,12,49,27.40
2007,01,07,12,50,25.70
2007,01,07,12,51,22.50
2007,01,07,12,52,22.50
2007,01,07,12,53,20.90
2007,01,07,12,54,19.30
2007,01,07,12,55,16.10
2007,01,07,12,56,17.70
2007,01,07,12,57,35.40
2007,01,07,12,58,32.20
2007,01,07,12,59,35.40
2007,01,07,13,00,25.70
2007,01,07,13,01,35.40
2007,01,07,13,02,27.40
2007,01,07,13,03,25.70
2007,01,07,13,04,22.50
2007,01,07,13,05,33.80
2007,01,07,13,06,41.80
2007,01,07,13,07,29.00
2007,01,07,13,08,24.20
2007,01,07,13,09,24.20
2007,01,07,13,10,19.30
2007,01,07,13,11,19.30
2007,01,07,13,12,19.30
2007,01,07,13,13,25.70
2007,01,07,13,14,30.60
2007,01,07,13,15,37.00
2007,01,07,13,16,30.60
2007,01,07,13,17,19.30
2007,01,07,13,18,24.20
2007,01,07,13,19,24.20
2007,01,07,13,20,19.30
2007,01,07,13,21,19.30
2007,01,07,13,22,19.30
2007,01,07,13,23,17.70
2007,01,07,13,24,9.60
2007,01,07,13,25,6.40
2007,01,07,13,26,16.10
2007,01,07,13,27,17.70
2007,01,07,13,28,14.50
2007,01,07,13,29,14.50
2007,01,07,13,30,14.50
2007,01,07,13,31,12.90
2007,01,07,13,32,9.60
2007,01,07,13,33,14.50
2007,01,07,13,34,8.10
2007,01,07,13,35,17.70
2007,01,07,13,36,32.20
2007,01,07,13,37,29.00
2007,01,07,13,38,20.90
2007,01,07,13,39,16.10
2007,01,07,13,40,30.60
2007,01,07,13,41,29.00
2007,01,07,13,42,19.30
2007,01,07,13,43,20.90
2007,01,07,13,44,24.20
2007,01,07,13,45,22.50
2007,01,07,13,46,25.70
2007,01,07,13,47,17.70
2007,01,07,13,48,22.50
2007,01,07,13,49,19.30
2007,01,07,13,50,22.50
2007,01,07,13,51,20.90
2007,01,07,13,52,30.60
2007,01,07,13,53,17.70
2007,01,07,13,54,11.30
2007,01,07,13,55,6.40
2007,01,07,13,56,11.30
2007,01,07,13,57,30.60
2007,01,07,13,58,24.20
2007,01,07,13,59,14.50
2007,01,07,14,00,11.30
2007,01,07,14,01,14.50
2007,01,07,14,02,29.00
2007,01,07,14,03,22.50
2007,01,07,14,04,16.10
2007,01,07,14,05,27.40
2007,01,07,14,06,25.70
2007,01,07,14,07,22.50
2007,01,07,14,08,20.90
2007,01,07,14,09,22.50
2007,01,07,14,10,30.60
2007,01,07,14,11,33.80
2007,01,07,14,12,27.40
2007,01,07,14,13,29.00
2007,01,07,14,14,27.40
2007,01,07,14,15,27.40
2007,01,07,14,16,35.40
2007,01,07,14,17,29.00
2007,01,07,14,18,27.40
2007,01,07,14,19,30.60
2007,01,07,14,20,37.00
2007,01,07,14,21,29.00
2007,01,07,14,22,41.80
2007,01,07,14,23,35.40
2007,01,07,14,24,25.70
2007,01,07,14,25,24.20
2007,01,07,14,26,27.40
2007,01,07,14,27,25.70
2007,01,07,14,28,20.90
2007,01,07,14,29,32.20
2007,01,07,14,30,35.40
2007,01,07,14,31,32.20
2007,01,07,14,32,38.60
2007,01,07,14,33,29.00
2007,01,07,14,34,29.00
2007,01,07,14,35,27.40
2007,01,07,14,36,25.70
2007,01,07,14,37,25.70
2007,01,07,14,38,27.40
2007,01,07,14,39,32.20
2007,01,07,14,40,32.20
2007,01,07,14,41,32.20
2007,01,07,14,42,29.00
2007,01,07,14,43,30.60
2007,01,07,14,44,24.20
2007,01,07,14,45,20.90
2007,01,07,14,46,19.30
2007,01,07,14,47,35.40
2007,01,07,14,48,35.40
2007,01,07,14,49,32.20
2007,01,07,14,50,25.70
2007,01,07,14,51,22.50
2007,01,07,14,52,22.50
2007,01,07,14,53,24.20
2007,01,07,14,54,25.70
2007,01,07,14,55,25.70
2007,01,07,14,56,30.60
2007,01,07,14,57,32.20
2007,01,07,14,58,29.00
2007,01,07,14,59,30.60
2007,01,07,15,00,40.20
2007,01,07,15,01,46.70
2007,01,07,15,02,40.20
2007,01,07,15,03,43.50
2007,01,07,15,04,45.10
2007,01,07,15,05,38.60
2007,01,07,15,06,45.10
2007,01,07,15,07,41.80
2007,01,07,15,08,45.10
2007,01,07,15,09,41.80
2007,01,07,15,10,46.70
2007,01,07,15,11,32.20
2007,01,07,15,12,40.20
2007,01,07,15,13,43.50
2007,01,07,15,14,51.50
2007,01,07,15,15,41.80
2007,01,07,15,16,45.10
2007,01,07,15,17,37.00
2007,01,07,15,18,43.50
2007,01,07,15,19,37.00
2007,01,07,15,20,32.20
2007,01,07,15,21,25.70
2007,01,07,15,22,37.00
2007,01,07,15,23,56.30
2007,01,07,15,24,48.30
2007,01,07,15,25,46.70
2007,01,07,15,26,41.80
2007,01,07,15,27,49.90
2007,01,07,15,28,38.60
2007,01,07,15,29,48.30
2007,01,07,15,30,30.60
2007,01,07,15,31,29.00
2007,01,07,15,32,35.40
2007,01,07,15,33,19.30
2007,01,07,15,34,27.40
2007,01,07,15,35,32.20
2007,01,07,15,36,48.30
2007,01,07,15,37,40.20
2007,01,07,15,38,45.10
2007,01,07,15,39,30.60
2007,01,07,15,40,24.20
2007,01,07,15,41,20.90
2007,01,07,15,42,40.20
2007,01,07,15,43,29.00
2007,01,07,15,44,32.20
2007,01,07,15,45,37.00
2007,01,07,15,46,27.40
2007,01,07,15,47,38.60
2007,01,07,15,48,30.60
2007,01,07,15,49,25.70
2007,01,07,15,50,37.00
2007,01,07,15,51,37.00
2007,01,07,15,52,46.70
2007,01,07,15,53,46.70
2007,01,07,15,54,37.00
2007,01,07,15,55,40.20
2007,01,07,15,56,32.20
2007,01,07,15,57,27.40
2007,01,07,15,58,32.20
2007,01,07,15,59,43.50
2007,01,07,16,00,51.50
2007,01,07,16,01,38.60
2007,01,07,16,02,33.80
2007,01,07,16,03,33.80
2007,01,07,16,04,33.80
2007,01,07,16,05,38.60
2007,01,07,16,06,35.40
2007,01,07,16,07,33.80
2007,01,07,16,08,37.00
2007,01,07,16,09,35.40
2007,01,07,16,10,29.00
2007,01,07,16,11,51.50
2007,01,07,16,12,45.10
2007,01,07,16,13,43.50
2007,01,07,16,14,49.90
2007,01,07,16,15,40.20
2007,01,07,16,16,41.80
2007,01,07,16,17,25.70
2007,01,07,16,18,33.80
2007,01,07,16,19,25.70
2007,01,07,16,20,27.40
2007,01,07,16,21,33.80
2007,01,07,16,22,37.00
2007,01,07,16,23,35.40
2007,01,07,16,24,24.20
2007,01,07,16,25,37.00
2007,01,07,16,26,46.70
2007,01,07,16,27,30.60
2007,01,07,16,28,30.60
2007,01,07,16,29,35.40
2007,01,07,16,30,30.60
2007,01,07,16,31,38.60
2007,01,07,16,32,43.50
2007,01,07,16,33,38.60
2007,01,07,16,34,27.40
2007,01,07,16,35,30.60
2007,01,07,16,36,35.40
2007,01,07,16,37,38.60
2007,01,07,16,38,32.20
2007,01,07,16,39,30.60
2007,01,07,16,40,30.60
2007,01,07,16,41,29.00
2007,01,07,16,42,35.40
2007,01,07,16,43,27.40
2007,01,07,16,44,24.20
2007,01,07,16,45,30.60
2007,01,07,16,46,35.40
2007,01,07,16,47,16.10
2007,01,07,16,48,29.00
2007,01,07,16,49,20.90
2007,01,07,16,50,32.20
2007,01,07,16,51,32.20
2007,01,07,16,52,30.60
2007,01,07,16,53,33.80
2007,01,07,16,54,37.00
2007,01,07,16,55,19.30
2007,01,07,16,56,32.20
2007,01,07,16,57,38.60
2007,01,07,16,58,33.80
2007,01,07,16,59,29.00
2007,01,07,17,00,41.80
2007,01,07,17,01,40.20
2007,01,07,17,02,40.20
2007,01,07,17,03,38.60
2007,01,07,17,04,29.00
2007,01,07,17,05,35.40
2007,01,07,17,06,25.70
2007,01,07,17,07,30.60
2007,01,07,17,08,30.60
2007,01,07,17,09,29.00
2007,01,07,17,10,25.70
2007,01,07,17,11,19.30
2007,01,07,17,12,27.40
2007,01,07,17,13,32.20
2007,01,07,17,14,25.70
2007,01,07,17,15,29.00
2007,01,07,17,16,27.40
2007,01,07,17,17,27.40
2007,01,07,17,18,27.40
2007,01,07,17,19,37.00
2007,01,07,17,20,30.60
2007,01,07,17,21,29.00
2007,01,07,17,22,35.40
2007,01,07,17,23,37.00
2007,01,07,17,24,30.60
2007,01,07,17,25,30.60
2007,01,07,17,26,25.70
2007,01,07,17,27,24.20